Ionia, MI

4:22 PM EDT on May 22, 2017 (GMT -0400)
Ionia

Weather History for KY70 - January, 2012

Change the Weather History Date:

Wednesday, January 25, 2012

  Actual Average (KGRR) Record (KGRR)
Temperature  
Mean Temperature 30 °F -  
Max Temperature 32 °F 30 °F 66 °F (1950)
Min Temperature 28 °F 17 °F -14 °F (1961)
Degree Days  
Heating Degree Days 35    
Moisture  
Dew Point 24 °F    
Average Humidity 77    
Maximum Humidity 82    
Minimum Humidity 73    
Precipitation  
Precipitation 0.00 in - - ()
Sea Level Pressure  
Sea Level Pressure 30.27 in    
Wind  
Wind Speed 2 mph (SSE)    
Max Wind Speed 8 mph    
Max Gust Speed -    
Visibility 10 miles    
Events      
Averages and records for this station are not official NWS values.
T = Trace of Precipitation, MM = Missing Value Source: NWS Daily Summary

Daily Weather History Graph

Daily Weather History Graph

Search for Another Location

Airport or City:

Trip Planner

Search our weather history database for the weather conditions in past years. The results will help you decide how hot, cold, wet, or windy it might be!

Date:

Astronomy

Jan. 25, 2012 Rise Set
Actual Time 8:02 AM EST 5:43 PM EST
Civil Twilight 7:31 AM EST 6:13 PM EST
Nautical Twilight 6:57 AM EST 6:48 PM EST
Astronomical Twilight 6:23 AM EST 7:21 PM EST
Moon 8:56 AM EST (1/25) 8:41 PM EST (1/25)
Length of Visible Light 10h 42m
Length of Day
9h 40m
Waxing Crescent, 6% of the Moon is Illuminated
Jan 25
Waxing Crescent
Jan 30
First Quarter
Feb 7
Full
Feb 14
Last Quarter
Feb 21
New

Hourly Weather History & Observations

Time (EST) Temp. Windchill Dew Point Humidity Pressure Visibility Wind Dir Wind Speed Gust Speed Precip Events Conditions
12:12 AM 29.3 °F - 22.1 °F 75% 30.28 in 10.0 mi Calm Calm - N/A   Overcast
12:32 AM 29.3 °F 24.3 °F 21.9 °F 74% 30.29 in 10.0 mi NW 4.6 mph - N/A   Overcast
12:52 AM 29.3 °F - 22.6 °F 76% 30.29 in 10.0 mi Calm Calm - N/A   Overcast
1:12 AM 29.3 °F 25.6 °F 22.3 °F 75% 30.30 in 10.0 mi West 3.5 mph - N/A   Overcast
1:32 AM 29.3 °F 25.6 °F 22.5 °F 76% 30.31 in 10.0 mi West 3.5 mph - N/A   Overcast
1:52 AM 29.1 °F - 22.3 °F 76% 30.30 in 10.0 mi Calm Calm - N/A   Overcast
2:12 AM 29.3 °F - 22.1 °F 75% 30.32 in 10.0 mi Calm Calm - N/A   Overcast
2:32 AM 29.3 °F 25.6 °F 22.1 °F 75% 30.32 in 10.0 mi West 3.5 mph - N/A   Overcast
2:52 AM 29.3 °F 25.6 °F 22.1 °F 75% 30.34 in 10.0 mi West 3.5 mph - N/A   Overcast
3:12 AM 29.3 °F 24.3 °F 22.8 °F 77% 30.35 in 10.0 mi West 4.6 mph - N/A   Overcast
3:32 AM 29.3 °F - 22.6 °F 76% 30.34 in 10.0 mi Calm Calm - N/A   Overcast
3:52 AM 29.3 °F 25.6 °F 22.5 °F 76% 30.34 in 10.0 mi West 3.5 mph - N/A   Overcast
4:12 AM 29.3 °F 24.3 °F 22.6 °F 76% 30.35 in 10.0 mi West 4.6 mph - N/A   Overcast
4:32 AM 29.3 °F - 22.8 °F 77% 30.34 in 10.0 mi Calm Calm - N/A   Overcast
4:52 AM 29.3 °F - 22.8 °F 77% 30.33 in 10.0 mi Calm Calm - N/A   Overcast
5:12 AM 29.3 °F - 22.8 °F 77% 30.32 in 10.0 mi Calm Calm - N/A   Overcast
5:32 AM 29.3 °F - 22.5 °F 76% 30.31 in 10.0 mi Calm Calm - N/A   Overcast
5:52 AM 29.3 °F - 22.1 °F 75% 30.32 in 10.0 mi Calm Calm - N/A   Overcast
6:12 AM 29.3 °F 24.3 °F 22.5 °F 76% 30.33 in 10.0 mi WSW 4.6 mph - N/A   Overcast
6:32 AM 29.3 °F 25.6 °F 22.5 °F 76% 30.33 in 10.0 mi WNW 3.5 mph - N/A   Overcast
6:52 AM 28.9 °F - 22.1 °F 76% 30.33 in 10.0 mi Calm Calm - N/A   Overcast
7:12 AM 28.4 °F - 23.0 °F 80% 30.33 in 10.0 mi Calm Calm - N/A   Overcast
7:32 AM 28.9 °F - 23.2 °F 79% 30.34 in 10.0 mi Calm Calm - N/A   Overcast
7:52 AM 28.6 °F - 23.7 °F 82% 30.34 in 10.0 mi Calm Calm - N/A   Overcast
8:12 AM 28.8 °F - 23.9 °F 82% 30.34 in 10.0 mi Calm Calm - N/A   Overcast
8:32 AM 28.9 °F - 24.1 °F 82% 30.34 in 10.0 mi Calm Calm - N/A   Overcast
8:52 AM 28.9 °F 25.2 °F 23.5 °F 80% 30.32 in 10.0 mi ESE 3.5 mph - N/A   Overcast
9:12 AM 28.9 °F - 23.4 °F 80% 30.32 in 10.0 mi Calm Calm - N/A   Overcast
9:32 AM 29.3 °F - 23.7 °F 80% 30.32 in 10.0 mi Calm Calm - N/A   Overcast
9:52 AM 29.8 °F 24.9 °F 23.7 °F 78% 30.32 in 10.0 mi SE 4.6 mph - N/A   Overcast
10:12 AM 30.4 °F 23.6 °F 24.1 °F 77% 30.32 in 10.0 mi SE 6.9 mph - N/A   Overcast
10:52 AM 31.1 °F 25.4 °F 23.7 °F 74% 30.32 in 10.0 mi SSE 5.8 mph - N/A   Overcast
11:12 AM 31.1 °F 25.4 °F 23.9 °F 75% 30.32 in 10.0 mi SSE 5.8 mph - N/A   Overcast
11:32 AM 31.8 °F 28.5 °F 24.3 °F 74% 30.30 in 10.0 mi SE 3.5 mph - N/A   Overcast
11:52 AM 31.8 °F 28.5 °F 24.4 °F 74% 30.29 in 10.0 mi ESE 3.5 mph - N/A   Overcast
12:12 PM 32.0 °F 28.7 °F 24.4 °F 74% 30.29 in 10.0 mi ESE 3.5 mph - N/A   Overcast
12:32 PM 32.0 °F 25.6 °F 24.6 °F 74% 30.29 in 10.0 mi SSE 6.9 mph - N/A   Overcast
12:52 PM 32.0 °F 25.6 °F 24.4 °F 74% 30.29 in 10.0 mi South 6.9 mph - N/A   Overcast
1:12 PM 32.0 °F 25.6 °F 25.0 °F 75% 30.29 in 10.0 mi South 6.9 mph - N/A   Overcast
1:32 PM 32.0 °F 25.6 °F 24.3 °F 73% 30.29 in 10.0 mi South 6.9 mph - N/A   Overcast
1:52 PM 32.0 °F 26.4 °F 24.8 °F 75% 30.27 in 10.0 mi SSE 5.8 mph - N/A   Overcast
2:12 PM 31.8 °F - 24.3 °F 74% 30.26 in 10.0 mi Calm Calm - N/A   Overcast
2:32 PM 31.8 °F 28.5 °F 24.6 °F 75% 30.26 in 10.0 mi South 3.5 mph - N/A   Scattered Clouds
2:52 PM 31.8 °F - 24.3 °F 74% 30.25 in 10.0 mi Calm Calm - N/A   Scattered Clouds
3:12 PM 32.0 °F 27.5 °F 24.6 °F 74% 30.24 in 10.0 mi South 4.6 mph - N/A   Mostly Cloudy
3:32 PM 32.0 °F 28.7 °F 25.0 °F 75% 30.24 in 10.0 mi South 3.5 mph - N/A   Mostly Cloudy
4:12 PM 31.6 °F 28.3 °F 24.8 °F 76% 30.21 in 10.0 mi SE 3.5 mph - N/A   Scattered Clouds
4:32 PM 31.6 °F - 25.2 °F 77% 30.21 in 10.0 mi Calm Calm - N/A   Scattered Clouds
4:52 PM 31.6 °F - 25.2 °F 77% 30.21 in 7.0 mi Calm Calm - N/A   Mostly Cloudy
5:12 PM 31.5 °F - 25.2 °F 78% 30.20 in 10.0 mi Calm Calm - N/A   Mostly Cloudy
5:32 PM 31.1 °F 27.7 °F 25.3 °F 79% 30.19 in 10.0 mi SE 3.5 mph - N/A   Overcast
5:52 PM 31.1 °F - 25.3 °F 79% 30.20 in 10.0 mi Calm Calm - N/A   Overcast
6:12 PM 31.1 °F 27.7 °F 25.5 °F 80% 30.20 in 10.0 mi ESE 3.5 mph - N/A   Overcast
6:32 PM 31.1 °F 25.4 °F 25.3 °F 79% 30.19 in 10.0 mi SE 5.8 mph - N/A   Overcast
6:52 PM 31.1 °F 26.4 °F 25.5 °F 80% 30.20 in 10.0 mi SE 4.6 mph - N/A   Overcast
7:12 PM 31.1 °F 27.7 °F 25.5 °F 80% 30.20 in 10.0 mi SE 3.5 mph - N/A   Overcast
7:32 PM 31.1 °F 26.4 °F 25.7 °F 80% 30.18 in 10.0 mi ESE 4.6 mph - N/A   Overcast
7:52 PM 31.1 °F 26.4 °F 25.5 °F 80% 30.17 in 10.0 mi ESE 4.6 mph - N/A   Overcast
8:12 PM 31.1 °F 25.4 °F 25.9 °F 81% 30.16 in 10.0 mi East 5.8 mph - N/A   Overcast
8:32 PM 31.1 °F 24.5 °F 26.1 °F 82% 30.15 in 10.0 mi East 6.9 mph - N/A   Overcast
8:52 PM 31.1 °F 24.5 °F 26.1 °F 82% 30.14 in 10.0 mi East 6.9 mph - N/A   Overcast
9:12 PM 31.1 °F 24.5 °F 26.1 °F 82% 30.13 in 7.0 mi ESE 6.9 mph - N/A   Overcast
9:32 PM 31.1 °F 23.7 °F 26.1 °F 82% 30.13 in 10.0 mi ESE 8.1 mph - N/A   Overcast
10:12 PM 30.9 °F 24.3 °F 26.2 °F 83% 30.13 in 10.0 mi East 6.9 mph - N/A   Overcast
10:32 PM 31.1 °F 26.4 °F 26.4 °F 83% 30.13 in 10.0 mi East 4.6 mph - N/A   Overcast
10:52 PM 30.9 °F 27.5 °F 26.4 °F 83% 30.14 in 10.0 mi East 3.5 mph - N/A   Overcast
11:12 PM 30.6 °F 27.1 °F 26.2 °F 84% 30.13 in 7.0 mi East 3.5 mph - N/A   Overcast
11:32 PM 29.8 °F 26.3 °F 26.4 °F 87% 30.13 in 7.0 mi ESE 3.5 mph - N/A   Overcast
11:52 PM 29.8 °F 26.3 °F 26.4 °F 87% 30.14 in 7.0 mi ESE 3.5 mph - N/A   Overcast